Regional Weather Roundup
Issued by NWS

Home | Current Version | Previous Version | Graphics & Text | Print | Product List | Glossary On
Versions: 1 2 3 4 5 6 7 8 9 10 11 12 13 14 15 16 17 18 19 20 21 22 23 24 25 26 27 28 29 30 31 32 33 34 35 36 37 38 39 40 41 42 43 44 45 46 47 48 49 50
000
ASUS45 KPSR 181110
RWRAZ

ARIZONA REGIONAL HOURLY WEATHER ROUNDUP
NATIONAL WEATHER SERVICE PHOENIX AZ
400 AM MST THU SEP 18 2014

NOTE: FAIR INDICATES FEW OR NO CLOUDS BELOW 12,000 FEET WITH NO
SIGNIFICANT WEATHER AND/OR OBSTRUCTIONS TO VISIBILITY.

AZZ001>003-036-181200-
NORTHWEST ARIZONA

CITY           SKY/WX    TMP DP  RH WIND       PRES   REMARKS
BULLHEAD CITY  MOCLDY    84  68  58 CALM      29.73S
KINGMAN        CLEAR     66  60  81 CALM      29.91F
$$

AZZ004>008-015-016-018-181200-
NORTH CENTRAL ARIZONA

CITY           SKY/WX    TMP DP  RH WIND       PRES   REMARKS
GRAND CANYON   CLEAR     45  43  93 CALM      30.13S
PRESCOTT       CLEAR     58  53  84 SW5       30.02F
FLAGSTAFF      CLEAR     48  46  93 CALM      30.14S
PAYSON         CLEAR     59  55  88 CALM      30.03S
PAGE           CLEAR     69  52  54 SW5       29.97S
$$

AZZ009>014-017-181200-
NORTHEAST ARIZONA

CITY           SKY/WX    TMP DP  RH WIND       PRES   REMARKS
WINSLOW        CLEAR     56  55  97 W6        30.02S
SAINT JOHNS    CLEAR     57  54  89 NE6       30.03F
WINDOW ROCK    CLEAR     45  40  82 CALM      30.14F
SHOW LOW       MOCLDY    50  50 100 SW3       30.09F
$$

AZZ023-181200-
GREATER PHOENIX AREA

CITY           SKY/WX    TMP DP  RH WIND       PRES   REMARKS
PHOENIX        CLEAR     79  64  60 CALM      29.74S
BUCKEYE          N/A     73  73 100 N7        29.76R
LUKE AFB       CLEAR     76  69  79 N6        29.75S
DEER VALLEY    CLEAR     77  63  61 N6        29.76S
SCOTTSDALE     CLEAR     80  62  54 N5        29.77F
MESA-GATEWAY   PTCLDY   N/A N/A N/A CALM      29.78R
$$

AZZ027-028-181200-
SOUTHWEST MARICOPA COUNTY AND PINAL COUNTY

CITY           SKY/WX    TMP DP  RH WIND       PRES   REMARKS
CASA GRANDE    CLEAR     75  61  60 E7        29.76S
$$

AZZ503-504-507>509-181200-
SOUTHEAST ARIZONA

CITY           SKY/WX    TMP DP  RH WIND       PRES   REMARKS
TUCSON         CLOUDY    70  67  90 NW3       29.84S
DAVIS-MONTHAN  DRIZZLE   70  68  94 W1        29.83R FOG
NOGALES        LGT RAIN  66  65  96 CALM      29.89S
SIERRA VISTA   LGT RAIN  64  64 100 W6        29.92S FOG
DOUGLAS        LGT RAIN  65  64  97 SE10      29.91S FOG
SAFFORD        LGT RAIN  65  63  93 SE9       29.89F
$$

AZZ020-021-025-026-031-181200-
SOUTHWEST ARIZONA

CITY           SKY/WX    TMP DP  RH WIND       PRES   REMARKS
YUMA           PTCLDY    85  73  67 SE8       29.69S
$$

CAZ031-033-041-043-047-048-061-181200-
SOUTHERN CALIFORNIA

CITY           SKY/WX    TMP DP  RH WIND       PRES   REMARKS
DOWNTOWN L.A.  CLEAR     68  59  73 CALM      29.79S
L.A. AIRPORT   CLEAR     68  61  78 CALM      29.80R
SAN DIEGO      PTCLDY    73  67  81 CALM      29.82S
BURBANK        CLEAR     70  56  61 SE7       29.81R
ONTARIO        CLEAR     70  59  68 W5        29.81S
RIVERSIDE      CLEAR     70  60  70 CALM      29.81S
PALM SPRINGS   CLEAR     88  57  34 W3        29.71S
EL CENTRO NAS  CLEAR     86  62  44 SW6       29.65F
IMPERIAL       CLEAR     87  65  47 S5        29.65F
BLYTHE         CLEAR     82  70  66 CALM      29.70S
NEEDLES        CLEAR     84  68  58 E3        29.73S
$$

NVZ020-UTZ003-181200-
SOUTHERN NEVADA-UTAH

CITY           SKY/WX    TMP DP  RH WIND       PRES   REMARKS
LAS VEGAS      PTCLDY    83  59  44 S9        29.74F
SALT LAKE CITY PTCLDY    71  43  36 SE13      29.90R
$$

NMZ009-TXZ055-181200-
NEW MEXICO-WEST TEXAS

CITY           SKY/WX    TMP DP  RH WIND       PRES   REMARKS
ALBUQUERQUE    PTCLDY    60  55  83 N5        30.08S
EL PASO        LGT RAIN  67  62  84 N12       29.97F
$$


........................KEY........................
SKY/WX - SKY CONDITION/WEATHER
TMP    - TEMPERATURE IN FAHRENHEIT
DP     - DEW POINT IN FAHRENHEIT
RH     - RELATIVE HUMIDITY IN PERCENT
WIND   - DIRECTION AND SPEED IN MILES PER HOUR (MPH)
VRB    - VARIABLE WIND DIRECTION
PRES   - MEAN SEA LEVEL PRESSURE IN INCHES OF MERCURY
         F - FALLING PRESSURE   R - RISING PRESSURE
         S - STEADY PRESSURE
VSB    - VISIBILITY IN MILES
HX     - HEAT INDEX IN FAHRENHEIT
WCI    - WIND CHILL INDEX IN FAHRENHEIT
TC     - TEMPERATURE IN CELSIUS WHICH IS ALSO KNOWN AS
         TEMPERATURE IN CENTIGRADE
AFB    - AIR FORCE BASE
         LUKE AFB IS LUKE AIR FORCE BASE
         DAVIS-MONTHAN IS DAVIS-MONTHAN AIR FORCE BASE
NAS    - NAVAL AIR STATION
         EL CENTRO NAS IS EL CENTRO NAVAL AIR STATION
N/A    - NOT AVAILABLE


USA.gov is the U.S. government's official web portal to all federal, state and local government web resources and services.